User: anonymous   Login
Location: Caltech
(34.1382°N, 118.1253°W)
Time: 00:06:20
(UTC-07:00)
Language:

Cosmos 2360 Rocket - Orbit

View from above orbital plane
View from above orbital plane
View from above satellite
View from above satellite

Ground track
Ground track

The orbit data is extracted from the following two-line orbital elements,

1 25407U 98045B   15089.15616671 -.00000147  00000-0 -50449-4 0  9990
2 25407 071.0111 303.6128 0008000 344.6599 015.4280 14.15702944861532
Epoch (UTC): 30 March 2015 03:44:52
Eccentricity: 0.0008000
inclination: 71.0111°
perigee height: 834 km
apogee height: 845 km
right ascension of ascending node: 303.6128°
argument of perigee: 344.6599°
revolutions per day: 14.15702944
mean anomaly at epoch: 15.4280°
orbit number at epoch: 86153

The dashed part of the orbit path shows where the satellite is in the earth's shadow,  

DLR